| time (UTC) | temp F | wind direction | speed MPH | gust MPH | rain 1hr in | rain 24hr in | rain mn in | humidity % | barometer mb |
| 20260510120005 | 63 | 6 | 1.0 | 2.0 | 0.00 | 0.00 | 0.00 | 84 | 1013.6 |
| 20260510115504 | 62 | 11 | 1.0 | 2.0 | 0.00 | 0.00 | 0.00 | 85 | 1013.5 |
| 20260510115004 | 61 | 350 | 0.0 | 2.0 | 0.00 | 0.00 | 0.00 | 88 | 1013.6 |
| 20260510114504 | 61 | 331 | 1.0 | 2.0 | 0.00 | 0.00 | 0.00 | 89 | 1013.6 |
| 20260510114003 | 60 | 326 | 1.0 | 2.0 | 0.00 | 0.00 | 0.00 | 91 | 1013.5 |
| 20260510113504 | 60 | 347 | 1.0 | 2.0 | 0.00 | 0.00 | 0.00 | 92 | 1013.5 |
| 20260510113005 | 59 | 114 | 1.0 | 2.0 | 0.00 | 0.00 | 0.00 | 92 | 1013.3 |
| 20260510112504 | 58 | 110 | 1.0 | 2.0 | 0.00 | 0.00 | 0.00 | 93 | 1013.1 |
| 20260510112003 | 58 | 2 | 0.0 | 2.0 | 0.00 | 0.00 | 0.00 | 93 | 1013.2 |
| 20260510111504 | 58 | 351 | 0.0 | 2.0 | 0.00 | 0.00 | 0.00 | 94 | 1013.0 |
| 20260510111004 | 58 | 359 | 0.0 | 2.0 | 0.00 | 0.00 | 0.00 | 94 | 1013.0 |
| 20260510110503 | 57 | 19 | 0.0 | 2.0 | 0.00 | 0.00 | 0.00 | 94 | 1013.0 |
| 20260510110004 | 57 | 54 | 1.0 | 2.0 | 0.00 | 0.00 | 0.00 | 94 | 1012.9 |
| 20260510105503 | 57 | 27 | 1.0 | 2.0 | 0.00 | 0.00 | 0.00 | 94 | 1012.9 |
| 20260510105004 | 57 | 14 | 1.0 | 2.0 | 0.00 | 0.00 | 0.00 | 93 | 1012.8 |
| 20260510104503 | 56 | 36 | 0.0 | 2.0 | 0.00 | 0.00 | 0.00 | 93 | 1012.7 |
| 20260510104003 | 56 | 4 | 0.0 | 2.0 | 0.00 | 0.00 | 0.00 | 92 | 1012.5 |
| 20260510103504 | 56 | 334 | 0.0 | 2.0 | 0.00 | 0.00 | 0.00 | 92 | 1012.4 |
| 20260510103003 | 56 | 333 | 0.0 | 2.0 | 0.00 | 0.00 | 0.00 | 92 | 1012.3 |
| 20260510102503 | 56 | 317 | 0.0 | 2.0 | 0.00 | 0.00 | 0.00 | 91 | 1012.2 |
| 20260510102004 | 56 | 308 | 0.0 | 2.0 | 0.00 | 0.00 | 0.00 | 91 | 1012.1 |
| 20260510101003 | 57 | 353 | 0.0 | 2.0 | 0.00 | 0.00 | 0.00 | 90 | 1012.1 |
| 20260510100504 | 57 | 350 | 0.0 | 2.0 | 0.00 | 0.00 | 0.00 | 89 | 1012.0 |
| 20260510100004 | 57 | 353 | 0.0 | 2.0 | 0.00 | 0.00 | 0.00 | 89 | 1012.0 |
| 20260510095504 | 57 | 2 | 1.0 | 2.0 | 0.00 | 0.00 | 0.00 | 89 | 1011.9 |
| 20260510095003 | 58 | 93 | 1.0 | 2.0 | 0.00 | 0.00 | 0.00 | 89 | 1011.9 |
| 20260510094504 | 58 | 123 | 1.0 | 2.0 | 0.00 | 0.00 | 0.00 | 88 | 1011.9 |
| 20260510094004 | 58 | 109 | 0.0 | 2.0 | 0.00 | 0.00 | 0.00 | 88 | 1011.8 |
| 20260510093504 | 59 | 113 | 0.0 | 2.0 | 0.00 | 0.00 | 0.00 | 87 | 1011.8 |
| 20260510093004 | 59 | 81 | 1.0 | 3.0 | 0.00 | 0.00 | 0.00 | 88 | 1011.7 |
| 20260510092504 | 59 | 36 | 1.0 | 3.0 | 0.00 | 0.00 | 0.00 | 87 | 1011.6 |
| 20260510092004 | 60 | 30 | 1.0 | 3.0 | 0.00 | 0.00 | 0.00 | 87 | 1011.6 |
| 20260510090503 | 60 | 49 | 1.0 | 3.0 | 0.00 | 0.00 | 0.00 | 87 | 1011.4 |
| 20260510090004 | 60 | 92 | 1.0 | 3.0 | 0.00 | 0.00 | 0.00 | 87 | 1011.3 |
| 20260510084504 | 60 | 5 | 1.0 | 3.0 | 0.00 | 0.00 | 0.00 | 88 | 1011.2 |
| 20260510084003 | 60 | 357 | 1.0 | 4.0 | 0.00 | 0.00 | 0.00 | 88 | 1011.1 |
| 20260510083504 | 60 | 334 | 1.0 | 4.0 | 0.00 | 0.00 | 0.00 | 88 | 1011.0 |
| 20260510083003 | 60 | 333 | 1.0 | 5.0 | 0.00 | 0.00 | 0.00 | 89 | 1011.0 |
| 20260510082504 | 60 | 326 | 1.0 | 5.0 | 0.00 | 0.00 | 0.00 | 89 | 1011.1 |
| 20260510082004 | 60 | 328 | 1.0 | 4.0 | 0.00 | 0.00 | 0.00 | 90 | 1011.0 |
| 20260510081504 | 60 | 330 | 1.0 | 4.0 | 0.00 | 0.00 | 0.00 | 90 | 1010.9 |
| 20260510080504 | 59 | 325 | 1.0 | 5.0 | 0.00 | 0.00 | 0.00 | 92 | 1010.8 |
| 20260510080003 | 59 | 324 | 1.0 | 6.0 | 0.00 | 0.00 | 0.00 | 92 | 1011.0 |
| 20260510075004 | 58 | 321 | 1.0 | 3.0 | 0.00 | 0.00 | 0.00 | 93 | 1011.0 |
| 20260510074003 | 57 | 328 | 1.0 | 2.0 | 0.00 | 0.00 | 0.00 | 94 | 1011.1 |
| 20260510073504 | 57 | 313 | 1.0 | 2.0 | 0.00 | 0.00 | 0.00 | 94 | 1011.1 |
| 20260510073004 | 57 | 327 | 1.0 | 2.0 | 0.00 | 0.00 | 0.00 | 94 | 1011.1 |
| 20260510072504 | 57 | 348 | 0.0 | 2.0 | 0.00 | 0.00 | 0.00 | 94 | 1011.0 |
| 20260510072003 | 56 | 340 | 0.0 | 2.0 | 0.00 | 0.00 | 0.00 | 94 | 1011.1 |
| 20260510071504 | 56 | 340 | 0.0 | 2.0 | 0.00 | 0.00 | 0.00 | 94 | 1011.1 |
| 20260510071003 | 56 | 353 | 0.0 | 2.0 | 0.00 | 0.00 | 0.00 | 93 | 1011.2 |
| 20260510070504 | 56 | 9 | 0.0 | 2.0 | 0.00 | 0.00 | 0.00 | 93 | 1011.2 |
| 20260510070004 | 56 | 50 | 0.0 | 2.0 | 0.00 | 0.00 | 0.00 | 93 | 1011.1 |
| 20260510065004 | 56 | 107 | 0.0 | 2.0 | 0.00 | 0.00 | 0.00 | 92 | 1011.2 |
| 20260510064504 | 56 | 122 | 0.0 | 2.0 | 0.00 | 0.00 | 0.00 | 92 | 1011.2 |
| 20260510064004 | 56 | 140 | 0.0 | 2.0 | 0.00 | 0.00 | 0.00 | 92 | 1011.3 |
| 20260510063504 | 56 | 19 | 0.0 | 2.0 | 0.00 | 0.00 | 0.00 | 92 | 1011.1 |
| 20260510063003 | 56 | 11 | 0.0 | 2.0 | 0.00 | 0.00 | 0.00 | 92 | 1011.2 |
| 20260510062003 | 56 | 13 | 1.0 | 2.0 | 0.00 | 0.00 | 0.00 | 92 | 1011.2 |
| 20260510061504 | 56 | 17 | 0.0 | 2.0 | 0.00 | 0.00 | 0.00 | 92 | 1011.2 |
| 20260510061003 | 56 | 48 | 1.0 | 2.0 | 0.00 | 0.00 | 0.00 | 92 | 1011.1 |
| 20260510060504 | 56 | 57 | 1.0 | 2.0 | 0.00 | 0.00 | 0.00 | 92 | 1011.2 |
| 20260510060003 | 56 | 64 | 0.0 | 2.0 | 0.00 | 0.00 | 0.00 | 92 | 1011.3 |
| 20260510055504 | 56 | 54 | 0.0 | 2.0 | 0.00 | 0.00 | 0.00 | 92 | 1011.2 |
| 20260510054504 | 56 | 39 | 1.0 | 2.0 | 0.00 | 0.00 | 0.00 | 92 | 1011.3 |
| 20260510054003 | 56 | 22 | 0.0 | 2.0 | 0.00 | 0.00 | 0.00 | 91 | 1011.4 |
| 20260510053504 | 56 | 45 | 0.0 | 2.0 | 0.00 | 0.00 | 0.00 | 91 | 1011.5 |
| 20260510053003 | 56 | 52 | 0.0 | 2.0 | 0.00 | 0.00 | 0.00 | 91 | 1011.5 |
| 20260510052004 | 56 | 36 | 0.0 | 2.0 | 0.00 | 0.00 | 0.00 | 91 | 1011.4 |
| 20260510051503 | 56 | 10 | 0.0 | 2.0 | 0.00 | 0.00 | 0.00 | 91 | 1011.4 |
| 20260510051004 | 56 | 337 | 0.0 | 2.0 | 0.00 | 0.00 | 0.00 | 90 | 1011.3 |
| 20260510050503 | 56 | 359 | 0.0 | 2.0 | 0.00 | 0.00 | 0.00 | 90 | 1011.4 |
| 20260510050004 | 56 | 85 | 0.0 | 2.0 | 0.00 | 0.00 | 0.00 | 90 | 1011.3 |
| 20260510045504 | 56 | 88 | 0.0 | 2.0 | 0.00 | 0.00 | 0.00 | 90 | 1011.4 |
| 20260510044503 | 56 | 89 | 0.0 | 2.0 | 0.00 | 0.00 | 0.00 | 90 | 1011.4 |
| 20260510044003 | 56 | 65 | 0.0 | 2.0 | 0.00 | 0.00 | 0.00 | 90 | 1011.4 |
| 20260510043504 | 56 | 49 | 0.0 | 2.0 | 0.00 | 0.00 | 0.00 | 89 | 1011.3 |
| 20260510042503 | 57 | 69 | 0.0 | 2.0 | 0.00 | 0.00 | 0.00 | 89 | 1011.3 |
| 20260510042004 | 57 | 92 | 0.0 | 2.0 | 0.00 | 0.00 | 0.00 | 88 | 1011.3 |
| 20260510041504 | 57 | 123 | 0.0 | 2.0 | 0.00 | 0.00 | 0.00 | 88 | 1011.3 |
| 20260510041004 | 57 | 96 | 0.0 | 2.0 | 0.00 | 0.00 | 0.00 | 88 | 1011.3 |
| 20260510040004 | 57 | 37 | 0.0 | 2.0 | 0.00 | 0.00 | 0.00 | 87 | 1011.4 |
| 20260510035504 | 57 | 1 | 0.0 | 2.0 | 0.00 | 0.00 | 0.00 | 87 | 1011.3 |
| 20260510035004 | 57 | 56 | 0.0 | 1.0 | 0.00 | 0.00 | 0.00 | 86 | 1011.2 |
| 20260510034504 | 58 | 141 | 0.0 | 1.0 | 0.00 | 0.00 | 0.00 | 86 | 1011.2 |
| 20260510034004 | 58 | 78 | 0.0 | 2.0 | 0.00 | 0.00 | 0.00 | 86 | 1011.1 |
| 20260510033504 | 58 | 68 | 0.0 | 2.0 | 0.00 | 0.00 | 0.00 | 86 | 1011.1 |
| 20260510033003 | 58 | 52 | 0.0 | 2.0 | 0.00 | 0.00 | 0.00 | 85 | 1011.0 |
| 20260510032504 | 58 | 9 | 0.0 | 2.0 | 0.00 | 0.00 | 0.00 | 85 | 1011.0 |
| 20260510030504 | 59 | 32 | 0.0 | 2.0 | 0.00 | 0.00 | 0.00 | 83 | 1011.0 |
| 20260510030003 | 59 | 36 | 0.0 | 2.0 | 0.00 | 0.00 | 0.00 | 82 | 1011.0 |
| 20260510025505 | 59 | 52 | 0.0 | 2.0 | 0.00 | 0.00 | 0.00 | 82 | 1010.9 |
| 20260510025004 | 59 | 6 | 0.0 | 2.0 | 0.00 | 0.00 | 0.00 | 82 | 1010.9 |
| 20260510024503 | 59 | 338 | 0.0 | 2.0 | 0.00 | 0.00 | 0.00 | 82 | 1010.9 |
| 20260510024005 | 60 | 352 | 0.0 | 2.0 | 0.00 | 0.00 | 0.00 | 81 | 1010.8 |
| 20260510023504 | 60 | 73 | 0.0 | 2.0 | 0.00 | 0.00 | 0.00 | 81 | 1010.9 |
| 20260510023003 | 60 | 77 | 0.0 | 2.0 | 0.00 | 0.00 | 0.00 | 80 | 1010.9 |
| 20260510022503 | 60 | 85 | 0.0 | 2.0 | 0.00 | 0.00 | 0.00 | 80 | 1010.9 |
| 20260510022004 | 60 | 19 | 0.0 | 1.0 | 0.00 | 0.00 | 0.00 | 79 | 1010.9 |
| 20260510021503 | 60 | 27 | 0.0 | 2.0 | 0.00 | 0.00 | 0.00 | 79 | 1010.9 |
| 20260510020504 | 61 | 135 | 0.0 | 2.0 | 0.00 | 0.00 | 0.00 | 78 | 1010.9 |
| 20260510015004 | 62 | 91 | 0.0 | 2.0 | 0.00 | 0.00 | 0.00 | 76 | 1010.8 |
| 20260510014503 | 62 | 95 | 0.0 | 2.0 | 0.00 | 0.00 | 0.00 | 76 | 1010.8 |
| 20260510013504 | 62 | 2 | 0.0 | 2.0 | 0.00 | 0.00 | 0.00 | 75 | 1010.6 |
| 20260510013003 | 63 | 1 | 0.0 | 2.0 | 0.00 | 0.00 | 0.00 | 74 | 1010.6 |
| 20260510012503 | 63 | 4 | 0.0 | 2.0 | 0.00 | 0.00 | 0.00 | 73 | 1010.6 |
| 20260510012003 | 63 | 7 | 0.0 | 2.0 | 0.00 | 0.00 | 0.00 | 73 | 1010.6 |
| 20260510011504 | 64 | 351 | 0.0 | 2.0 | 0.00 | 0.00 | 0.00 | 72 | 1010.6 |
| 20260510011003 | 64 | 354 | 0.0 | 2.0 | 0.00 | 0.00 | 0.00 | 71 | 1010.4 |
| 20260510010504 | 64 | 100 | 0.0 | 2.0 | 0.00 | 0.00 | 0.00 | 71 | 1010.4 |
| 20260510010003 | 65 | 127 | 0.0 | 2.0 | 0.00 | 0.00 | 0.00 | 70 | 1010.5 |
| 20260510005504 | 65 | 101 | 0.0 | 2.0 | 0.00 | 0.00 | 0.00 | 70 | 1010.5 |
| 20260510005003 | 65 | 350 | 0.0 | 2.0 | 0.00 | 0.00 | 0.00 | 69 | 1010.5 |
| 20260510004504 | 66 | 346 | 0.0 | 2.0 | 0.00 | 0.00 | 0.00 | 68 | 1010.3 |
| 20260510004003 | 66 | 1 | 0.0 | 2.0 | 0.00 | 0.00 | 0.00 | 68 | 1010.3 |
| 20260510002504 | 67 | 13 | 0.0 | 2.0 | 0.00 | 0.00 | 0.00 | 65 | 1010.2 |
| 20260510002003 | 68 | 6 | 0.0 | 2.0 | 0.00 | 0.00 | 0.00 | 64 | 1010.2 |
| 20260510001504 | 68 | 316 | 0.0 | 2.0 | 0.00 | 0.00 | 0.00 | 63 | 1010.1 |
| 20260510001004 | 68 | 313 | 0.0 | 2.0 | 0.00 | 0.00 | 0.00 | 62 | 1010.0 |
| 20260510000503 | 69 | 47 | 0.0 | 2.0 | 0.00 | 0.00 | 0.00 | 62 | 1010.0 |
| 20260510000004 | 69 | 21 | 0.0 | 2.0 | 0.00 | 0.00 | 0.00 | 62 | 1010.1 |
| 20260509235504 | 70 | 358 | 0.0 | 2.0 | 0.00 | 0.00 | 0.00 | 60 | 1009.9 |
| 20260509235003 | 70 | 347 | 0.0 | 2.0 | 0.00 | 0.00 | 0.00 | 60 | 1009.8 |
| 20260509234504 | 70 | 345 | 0.0 | 2.0 | 0.00 | 0.00 | 0.00 | 58 | 1009.8 |
| 20260509234004 | 71 | 344 | 0.0 | 2.0 | 0.00 | 0.00 | 0.00 | 57 | 1009.7 |
| 20260509233504 | 71 | 350 | 0.0 | 2.0 | 0.00 | 0.00 | 0.00 | 57 | 1009.8 |
| 20260509233003 | 71 | 346 | 1.0 | 7.0 | 0.00 | 0.00 | 0.00 | 56 | 1009.7 |
| 20260509232504 | 71 | 333 | 1.0 | 7.0 | 0.00 | 0.00 | 0.00 | 56 | 1009.6 |
| 20260509231504 | 72 | 329 | 1.0 | 4.0 | 0.00 | 0.00 | 0.00 | 55 | 1009.5 |
| 20260509230503 | 72 | 335 | 2.0 | 6.0 | 0.00 | 0.00 | 0.00 | 53 | 1009.6 |
| 20260509230004 | 73 | 330 | 1.0 | 5.0 | 0.00 | 0.00 | 0.00 | 53 | 1009.5 |
| 20260509224504 | 73 | 327 | 2.0 | 5.0 | 0.00 | 0.00 | 0.00 | 55 | 1009.5 |
| 20260509224004 | 73 | 348 | 2.0 | 6.0 | 0.00 | 0.00 | 0.00 | 55 | 1009.4 |
| 20260509223004 | 73 | 341 | 2.0 | 5.0 | 0.00 | 0.00 | 0.00 | 55 | 1009.5 |
| 20260509222503 | 74 | 341 | 2.0 | 5.0 | 0.00 | 0.00 | 0.00 | 54 | 1009.4 |
| 20260509221504 | 74 | 330 | 2.0 | 5.0 | 0.00 | 0.00 | 0.00 | 54 | 1009.5 |
| 20260509221004 | 74 | 332 | 2.0 | 10.0 | 0.00 | 0.00 | 0.00 | 53 | 1009.5 |
| 20260509220504 | 74 | 342 | 2.0 | 10.0 | 0.00 | 0.00 | 0.00 | 52 | 1009.5 |
| 20260509220004 | 74 | 346 | 2.0 | 9.0 | 0.00 | 0.00 | 0.00 | 53 | 1009.5 |
| 20260509215504 | 74 | 352 | 2.0 | 6.0 | 0.00 | 0.00 | 0.00 | 55 | 1009.5 |
| 20260509215005 | 73 | 353 | 2.0 | 6.0 | 0.00 | 0.00 | 0.00 | 53 | 1009.4 |
| 20260509213504 | 74 | 348 | 2.0 | 5.0 | 0.00 | 0.00 | 0.00 | 54 | 1009.4 |
| 20260509212504 | 74 | 340 | 2.0 | 8.0 | 0.00 | 0.00 | 0.00 | 54 | 1009.4 |
| 20260509212003 | 73 | 345 | 3.0 | 7.0 | 0.00 | 0.00 | 0.00 | 53 | 1009.3 |
| 20260509211504 | 73 | 347 | 2.0 | 7.0 | 0.00 | 0.00 | 0.00 | 54 | 1009.4 |
| 20260509211003 | 72 | 347 | 1.0 | 7.0 | 0.00 | 0.00 | 0.00 | 55 | 1009.4 |
| 20260509210004 | 72 | 332 | 2.0 | 4.0 | 0.00 | 0.00 | 0.00 | 52 | 1009.4 |
| 20260509205503 | 72 | 335 | 2.0 | 5.0 | 0.00 | 0.00 | 0.00 | 52 | 1009.6 |
| 20260509205004 | 72 | 334 | 2.0 | 5.0 | 0.00 | 0.00 | 0.00 | 51 | 1009.6 |
| 20260509204504 | 72 | 341 | 2.0 | 9.0 | 0.00 | 0.00 | 0.00 | 52 | 1009.5 |
| 20260509204003 | 72 | 346 | 2.0 | 11.0 | 0.00 | 0.00 | 0.00 | 53 | 1009.6 |
| 20260509203003 | 72 | 340 | 2.0 | 4.0 | 0.00 | 0.00 | 0.00 | 50 | 1009.6 |
| 20260509202504 | 72 | 350 | 2.0 | 7.0 | 0.00 | 0.00 | 0.00 | 51 | 1009.6 |
| 20260509202004 | 72 | 357 | 3.0 | 9.0 | 0.00 | 0.00 | 0.00 | 51 | 1009.6 |
| 20260509201503 | 73 | 357 | 4.0 | 9.0 | 0.00 | 0.00 | 0.00 | 51 | 1009.6 |
| 20260509201004 | 73 | 355 | 3.0 | 9.0 | 0.00 | 0.00 | 0.00 | 52 | 1009.7 |
| 20260509200503 | 73 | 357 | 3.0 | 9.0 | 0.00 | 0.00 | 0.00 | 51 | 1009.8 |
| 20260509200004 | 73 | 338 | 3.0 | 12.0 | 0.00 | 0.00 | 0.00 | 48 | 1009.9 |
| 20260509195503 | 73 | 333 | 4.0 | 12.0 | 0.00 | 0.00 | 0.00 | 47 | 1010.1 |
| 20260509194504 | 73 | 350 | 4.0 | 13.0 | 0.00 | 0.00 | 0.00 | 50 | 1010.4 |
| 20260509194003 | 73 | 351 | 4.0 | 13.0 | 0.00 | 0.00 | 0.00 | 53 | 1010.5 |
| 20260509193504 | 74 | 344 | 4.0 | 10.0 | 0.00 | 0.00 | 0.00 | 53 | 1010.6 |
| 20260509193004 | 74 | 342 | 4.0 | 14.0 | 0.00 | 0.00 | 0.00 | 51 | 1010.6 |
| 20260509192503 | 74 | 342 | 3.0 | 14.0 | 0.00 | 0.00 | 0.00 | 51 | 1010.6 |
| 20260509191504 | 74 | 346 | 3.0 | 10.0 | 0.00 | 0.00 | 0.00 | 53 | 1010.7 |
| 20260509191003 | 73 | 352 | 3.0 | 10.0 | 0.00 | 0.00 | 0.00 | 54 | 1010.7 |
| 20260509190504 | 73 | 350 | 3.0 | 10.0 | 0.00 | 0.00 | 0.00 | 51 | 1010.8 |
| 20260509190003 | 74 | 348 | 4.0 | 13.0 | 0.00 | 0.00 | 0.00 | 51 | 1010.8 |
| 20260509185504 | 74 | 351 | 4.0 | 13.0 | 0.00 | 0.00 | 0.00 | 51 | 1010.7 |
| 20260509185004 | 74 | 346 | 5.0 | 12.0 | 0.00 | 0.00 | 0.00 | 52 | 1010.8 |
| 20260509184503 | 74 | 350 | 5.0 | 21.0 | 0.00 | 0.00 | 0.00 | 52 | 1010.9 |
| 20260509184004 | 74 | 355 | 5.0 | 21.0 | 0.00 | 0.00 | 0.00 | 53 | 1010.9 |
| 20260509183504 | 73 | 348 | 4.0 | 12.0 | 0.00 | 0.00 | 0.00 | 53 | 1011.0 |
| 20260509183004 | 74 | 348 | 4.0 | 12.0 | 0.00 | 0.00 | 0.00 | 55 | 1011.1 |
| 20260509182504 | 74 | 351 | 3.0 | 12.0 | 0.00 | 0.00 | 0.00 | 59 | 1011.1 |
| 20260509182003 | 73 | 357 | 3.0 | 15.0 | 0.00 | 0.00 | 0.00 | 58 | 1011.3 |
| 20260509181504 | 73 | 1 | 5.0 | 15.0 | 0.00 | 0.00 | 0.00 | 58 | 1011.3 |
| 20260509181004 | 73 | 1 | 5.0 | 17.0 | 0.00 | 0.00 | 0.00 | 59 | 1011.3 |
| 20260509180504 | 73 | 1 | 5.0 | 17.0 | 0.00 | 0.00 | 0.00 | 63 | 1011.2 |
| 20260509180003 | 72 | 2 | 5.0 | 15.0 | 0.00 | 0.00 | 0.00 | 61 | 1011.3 |
| 20260509175503 | 73 | 5 | 5.0 | 16.0 | 0.00 | 0.00 | 0.00 | 61 | 1011.5 |
| 20260509175004 | 73 | 6 | 5.0 | 16.0 | 0.00 | 0.00 | 0.00 | 61 | 1011.4 |
| 20260509174504 | 73 | 3 | 5.0 | 16.0 | 0.00 | 0.00 | 0.00 | 56 | 1011.5 |
| 20260509174003 | 73 | 357 | 5.0 | 16.0 | 0.00 | 0.00 | 0.00 | 56 | 1011.4 |
| 20260509173004 | 74 | 354 | 5.0 | 15.0 | 0.00 | 0.00 | 0.00 | 55 | 1011.4 |
| 20260509172503 | 74 | 359 | 5.0 | 15.0 | 0.00 | 0.00 | 0.00 | 54 | 1011.3 |
| 20260509172004 | 74 | 351 | 5.0 | 16.0 | 0.00 | 0.00 | 0.00 | 54 | 1011.4 |
| 20260509171504 | 73 | 352 | 6.0 | 16.0 | 0.00 | 0.00 | 0.00 | 52 | 1011.5 |
| 20260509171004 | 74 | 2 | 7.0 | 16.0 | 0.00 | 0.00 | 0.00 | 52 | 1011.4 |
| 20260509170003 | 74 | 348 | 5.0 | 11.0 | 0.00 | 0.00 | 0.00 | 50 | 1011.5 |
| 20260509165504 | 74 | 341 | 5.0 | 14.0 | 0.00 | 0.00 | 0.00 | 51 | 1011.5 |
| 20260509164504 | 74 | 355 | 5.0 | 15.0 | 0.00 | 0.00 | 0.00 | 48 | 1011.6 |
| 20260509164003 | 74 | 356 | 5.0 | 15.0 | 0.00 | 0.00 | 0.00 | 50 | 1011.8 |
| 20260509163504 | 74 | 347 | 5.0 | 13.0 | 0.00 | 0.00 | 0.00 | 49 | 1012.0 |
| 20260509163004 | 73 | 347 | 5.0 | 14.0 | 0.00 | 0.00 | 0.00 | 50 | 1011.8 |
| 20260509162503 | 73 | 348 | 6.0 | 14.0 | 0.00 | 0.00 | 0.00 | 51 | 1012.1 |
| 20260509162004 | 74 | 347 | 5.0 | 17.0 | 0.00 | 0.00 | 0.00 | 50 | 1012.1 |
| 20260509161503 | 74 | 353 | 6.0 | 17.0 | 0.00 | 0.00 | 0.00 | 50 | 1012.0 |
| 20260509161004 | 74 | 358 | 6.0 | 16.0 | 0.00 | 0.00 | 0.00 | 47 | 1011.9 |
| 20260509160503 | 74 | 350 | 5.0 | 16.0 | 0.00 | 0.00 | 0.00 | 51 | 1011.9 |
| 20260509160004 | 73 | 342 | 5.0 | 15.0 | 0.00 | 0.00 | 0.00 | 51 | 1012.0 |
| 20260509155503 | 73 | 349 | 5.0 | 15.0 | 0.00 | 0.00 | 0.00 | 51 | 1012.0 |
| 20260509155004 | 73 | 353 | 5.0 | 14.0 | 0.00 | 0.00 | 0.00 | 52 | 1012.0 |
| 20260509154503 | 72 | 358 | 6.0 | 14.0 | 0.00 | 0.00 | 0.00 | 54 | 1012.3 |
| 20260509154004 | 72 | 5 | 7.0 | 14.0 | 0.00 | 0.00 | 0.00 | 55 | 1012.4 |
| 20260509153503 | 72 | 356 | 6.0 | 15.0 | 0.00 | 0.00 | 0.00 | 57 | 1012.5 |
| 20260509153004 | 72 | 344 | 5.0 | 15.0 | 0.00 | 0.00 | 0.00 | 57 | 1012.7 |
| 20260509152503 | 71 | 349 | 4.0 | 10.0 | 0.00 | 0.00 | 0.00 | 58 | 1013.0 |
| 20260509152004 | 71 | 348 | 4.0 | 10.0 | 0.00 | 0.00 | 0.00 | 61 | 1013.1 |
| 20260509151503 | 71 | 352 | 5.0 | 18.0 | 0.00 | 0.00 | 0.00 | 58 | 1013.1 |
| 20260509151004 | 71 | 358 | 7.0 | 19.0 | 0.00 | 0.00 | 0.00 | 58 | 1013.2 |
| 20260509150503 | 71 | 354 | 6.0 | 19.0 | 0.00 | 0.00 | 0.00 | 57 | 1013.2 |
| 20260509150004 | 71 | 346 | 5.0 | 21.0 | 0.00 | 0.00 | 0.00 | 58 | 1013.2 |
| 20260509145503 | 71 | 344 | 5.0 | 21.0 | 0.00 | 0.00 | 0.00 | 58 | 1013.2 |
| 20260509144504 | 71 | 355 | 6.0 | 20.0 | 0.00 | 0.00 | 0.00 | 58 | 1013.3 |
| 20260509144004 | 71 | 342 | 5.0 | 16.0 | 0.00 | 0.00 | 0.00 | 58 | 1013.3 |
| 20260509143503 | 71 | 345 | 5.0 | 16.0 | 0.00 | 0.00 | 0.00 | 58 | 1013.4 |
| 20260509143004 | 70 | 353 | 6.0 | 20.0 | 0.00 | 0.00 | 0.00 | 58 | 1013.3 |
| 20260509142504 | 70 | 354 | 6.0 | 20.0 | 0.00 | 0.00 | 0.00 | 58 | 1013.3 |
| 20260509142003 | 70 | 352 | 6.0 | 18.0 | 0.00 | 0.00 | 0.00 | 59 | 1013.3 |
| 20260509141504 | 70 | 350 | 6.0 | 16.0 | 0.00 | 0.00 | 0.00 | 58 | 1013.4 |
| 20260509141003 | 71 | 353 | 6.0 | 21.0 | 0.00 | 0.00 | 0.00 | 58 | 1013.4 |
| 20260509140504 | 71 | 350 | 5.0 | 21.0 | 0.00 | 0.00 | 0.00 | 57 | 1013.4 |
| 20260509140004 | 71 | 345 | 5.0 | 17.0 | 0.00 | 0.00 | 0.00 | 59 | 1013.2 |
| 20260509135504 | 71 | 352 | 6.0 | 18.0 | 0.00 | 0.00 | 0.00 | 59 | 1013.3 |
| 20260509135003 | 71 | 352 | 6.0 | 18.0 | 0.00 | 0.00 | 0.00 | 60 | 1013.4 |
| 20260509134504 | 71 | 352 | 5.0 | 13.0 | 0.00 | 0.00 | 0.00 | 62 | 1013.4 |
| 20260509134003 | 70 | 354 | 5.0 | 14.0 | 0.00 | 0.00 | 0.00 | 62 | 1013.5 |
| 20260509133504 | 70 | 350 | 5.0 | 14.0 | 0.00 | 0.00 | 0.00 | 63 | 1013.5 |
| 20260509133004 | 70 | 352 | 5.0 | 16.0 | 0.00 | 0.00 | 0.00 | 63 | 1013.6 |
| 20260509132504 | 70 | 350 | 5.0 | 16.0 | 0.00 | 0.00 | 0.00 | 64 | 1013.5 |
| 20260509132004 | 69 | 354 | 6.0 | 18.0 | 0.00 | 0.00 | 0.00 | 64 | 1013.6 |
| 20260509131503 | 69 | 359 | 6.0 | 18.0 | 0.00 | 0.00 | 0.00 | 65 | 1013.5 |
| 20260509131004 | 69 | 355 | 4.0 | 15.0 | 0.00 | 0.00 | 0.00 | 66 | 1013.6 |
| 20260509130503 | 68 | 351 | 4.0 | 15.0 | 0.00 | 0.00 | 0.00 | 68 | 1013.5 |
| 20260509130004 | 68 | 348 | 4.0 | 12.0 | 0.00 | 0.00 | 0.00 | 69 | 1013.6 |
| 20260509125504 | 67 | 349 | 4.0 | 12.0 | 0.00 | 0.00 | 0.00 | 70 | 1013.6 |
| 20260509125004 | 67 | 352 | 4.0 | 10.0 | 0.00 | 0.00 | 0.00 | 72 | 1013.7 |
| 20260509124004 | 66 | 359 | 4.0 | 14.0 | 0.00 | 0.00 | 0.00 | 73 | 1013.7 |
| 20260509123503 | 65 | 2 | 5.0 | 17.0 | 0.00 | 0.00 | 0.00 | 73 | 1013.7 |
| 20260509123003 | 65 | 357 | 4.0 | 17.0 | 0.00 | 0.00 | 0.00 | 74 | 1013.8 |
| 20260509122504 | 64 | 352 | 4.0 | 11.0 | 0.00 | 0.00 | 0.00 | 76 | 1013.7 |
| 20260509122003 | 64 | 355 | 4.0 | 11.0 | 0.00 | 0.00 | 0.00 | 76 | 1013.9 |
| 20260509121503 | 63 | 359 | 4.0 | 12.0 | 0.00 | 0.00 | 0.00 | 77 | 1013.9 |
| 20260509121004 | 63 | 1 | 4.0 | 14.0 | 0.00 | 0.00 | 0.00 | 77 | 1013.9 |